CST,Max TemperatureF,Mean TemperatureF,Min TemperatureF,Max Dew PointF,MeanDew PointF,Min DewpointF,Max Humidity, Mean Humidity, Min Humidity, Max Sea Level PressureIn, Mean Sea Level PressureIn, Min Sea Level PressureIn, Max VisibilityMiles, Mean VisibilityMiles, Min VisibilityMiles, Max Wind SpeedMPH, Mean Wind SpeedMPH, Max Gust SpeedMPH,PrecipitationIn, CloudCover, Events, WindDirDegrees
2012-11-1,55,44,32,33,27,17,75,58,41,29.99,29.93,29.86,10,10,10,20,9,25,0.00,3,,319
2012-11-2,45,36,27,29,26,24,85,65,45,30.17,30.10,30.01,10,10,10,10,5,13,0.00,0,,38
2012-11-3,46,40,34,32,30,27,82,70,58,30.25,30.21,30.16,10,10,7,12,5,15,0.00,7,,81
2012-11-4,46,40,34,36,33,28,92,79,65,30.27,30.23,30.19,10,10,8,6,2,,0.00,8,,169
2012-11-5,47,38,28,34,28,25,85,67,49,30.22,30.17,30.12,10,9,5,9,5,,0.00,4,,103
2012-11-6,42,35,28,40,35,24,100,89,78,30.11,29.91,29.82,10,5,0,14,9,31,0.22,8,Fog-Rain-Snow,207
2012-11-7,42,40,37,37,35,33,100,85,70,30.17,30.08,29.89,10,9,6,15,5,,0.00,8,,26
2012-11-8,50,41,31,37,34,30,92,77,61,30.17,30.11,30.04,10,9,5,18,10,23,0.00,2,,183
2012-11-9,53,45,37,43,40,35,92,78,64,30.05,29.99,29.93,10,7,4,13,6,16,0.00,5,,109
2012-11-10,69,59,48,54,50,43,89,73,56,29.94,29.80,29.71,10,9,5,31,17,39,0.00,2,,157
2012-11-11,62,45,28,55,46,22,100,78,56,30.02,29.77,29.67,10,7,2,26,17,35,0.94,8,Rain-Thunderstorm,240
2012-11-12,29,25,20,22,17,14,81,75,68,30.39,30.17,30.00,10,10,6,26,15,33,T,5,Snow,272
2012-11-13,40,29,17,23,19,14,84,62,40,30.51,30.46,30.39,10,10,10,13,7,16,0.00,1,,204
2012-11-14,50,42,33,31,28,24,82,64,46,30.44,30.38,30.33,10,10,10,20,13,26,0.00,3,,180
2012-11-15,53,42,30,33,29,26,85,63,41,30.37,30.32,30.27,10,9,6,17,8,22,0.00,1,,193
2012-11-16,53,42,30,35,32,28,92,71,50,30.48,30.45,30.38,10,8,5,8,5,,0.00,0,,62
2012-11-17,53,42,31,35,32,28,92,69,46,30.50,30.44,30.40,10,7,4,17,10,21,0.00,0,,171
2012-11-18,53,44,34,36,33,30,89,68,46,30.39,30.32,30.24,10,8,4,18,12,24,0.00,0,,165
2012-11-19,53,47,41,45,40,34,93,77,61,30.25,30.14,30.08,10,8,5,17,10,22,0.00,6,,181
2012-11-20,51,44,36,46,43,36,100,89,77,30.21,30.14,30.08,5,1,0,13,3,16,0.00,5,Fog,18
2012-11-21,58,45,32,45,40,32,100,81,62,30.20,30.12,30.00,10,3,0,20,13,24,0.00,3,Fog,197
2012-11-22,62,50,38,46,39,28,92,74,55,29.98,29.83,29.72,10,9,7,30,19,40,0.00,2,,229
2012-11-23,38,30,22,28,17,13,77,65,53,30.32,30.25,30.08,10,10,10,38,21,46,0.00,6,,311
2012-11-24,31,23,14,20,16,11,88,73,58,30.31,30.17,29.91,10,10,10,24,7,26,0.00,4,,228
2012-11-25,37,29,21,24,21,18,88,72,56,30.13,29.97,29.86,10,10,10,17,8,21,0.00,1,,300
2012-11-26,30,23,15,20,15,8,81,67,53,30.43,30.32,30.16,10,10,10,16,8,21,0.00,1,,335
2012-11-27,30,20,9,16,11,5,92,69,46,30.43,30.35,30.26,10,10,9,16,7,26,0.00,3,,215
2012-11-28,42,29,16,23,19,13,84,64,43,30.40,30.34,30.27,10,10,9,14,6,17,0.00,0,,214
2012-11-29,50,38,25,32,28,21,88,71,53,30.17,30.08,30.04,10,9,6,15,7,18,0.00,2,,169
2012-11-30,48,41,33,37,34,30,96,81,65,30.15,30.10,30.03,9,4,2,14,9,,0.00,2,,46